Hourly Weather Roundup
Issued by NWS Central Illinois

Home | Current Version | Previous Version | Text Only | Print | Product List | Glossary On
Versions: 1 2 3 4 5 6 7 8 9 10 11 12 13 14 15 16 17 18 19 20 21 22 23 24 25 26 27 28 29 30 31 32 33 34 35 36 37 38 39 40 41 42 43 44 45 46 47 48 49 50
000
NZUS43 KILX 281110
HWRILX

AREA WEATHER ROUNDUP
NATIONAL WEATHER SERVICE, LINCOLN IL
600 AM CDT SAT MAR 28 2015


CITY           SKY/WX    TMP DP  RH WIND       PRES   REMARKS
BLOOMINGTON    CLEAR     20  15  81 CALM      30.25R
CHAMPAIGN      CLEAR     19  14  81 CALM      30.24R
DECATUR        CLEAR     21  16  81 CALM      30.25R
EFFINGHAM      CLEAR     24  15  68 CALM      30.26R
FLORA          CLEAR     25  19  80 NE3       30.25R
GALESBURG      PTCLDY    21  17  83 E3        30.25R
JACKSONVILLE   PTCLDY    25  20  82 E6        30.25R WCI  18
LACON          CLEAR     17  14  86 CALM      30.26R
LAWRENCEVILLE  CLEAR     22  15  75 N8        30.25R WCI  12
LITCHFIELD     CLEAR     24  19  81 E5        30.24R WCI  18
$$


CITY           SKY/WX    TMP DP  RH WIND       PRES   REMARKS
LINCOLN        PTCLDY    21  18  89 CALM      30.27R
MACOMB         PTCLDY    22  19  87 SE3       30.27R
MATTOON        CLEAR     21  14  74 NE5       30.23R WCI  15
MT CARMEL AP   CLEAR     27  18  69 N5        30.24R WCI  21
OLNEY-NOBLE AP CLEAR     23  18  80 CALM      30.25R
PARIS          CLEAR     20  17  86 CALM      30.24S
PEORIA         CLEAR     23  13  65 CALM      30.27R
PONTIAC        CLEAR     18  16  90 CALM      30.26R
RANTOUL        CLEAR     22  16  80 CALM      30.24R
ROBINSON       CLEAR     22  16  77 N9        30.26R WCI  12
SPRINGFIELD    PTCLDY    23  17  78 E5        30.25R WCI  17
TAYLORVILLE    PTCLDY    23  18  80 E7        30.25R WCI  15
$$

...REGIONAL REPORTS...


CITY           SKY/WX    TMP DP  RH WIND       PRES   REMARKS
CHICAGO O`HARE CLEAR     20  13  74 N6        30.25R WCI  12
KANKAKEE       CLEAR     22  17  81 N3        30.26R
MOLINE         PTCLDY    17  12  80 E6        30.26R WCI   9
MOUNT VERNON   PTCLDY    23  16  74 N5        30.24R WCI  17
PITTSFIELD     PTCLDY    27  19  72 E3        30.24R
QUINCY         PTCLDY    26  16  65 E7        30.22R WCI  18
ROCKFORD       CLEAR     16  11  80 NE3       30.28R
$$


CITY           SKY/WX    TMP DP  RH WIND       PRES   REMARKS
BURLINGTON     PTCLDY    25  16  68 E6        30.24R WCI  18
CEDAR RAPIDS   CLEAR     21  13  71 SE5       30.21R WCI  15
DES MOINES     CLOUDY    32  12  43 E7        30.18R WCI  26
KIRKSVILLE     CLOUDY    30  19  63 E7        30.20R WCI  23
OTTUMWA        MOCLDY    24  16  71 SE6       30.20R WCI  17
ST LOUIS       MOCLDY    30  17  58 E7        30.23R WCI  23
$$


CITY           SKY/WX    TMP DP  RH WIND       PRES   REMARKS
TERRE HAUTE    CLEAR     20  14  77 N5        30.24R WCI  13
EVANSVILLE     CLEAR     26  17  68 CALM      30.24R
INDIANAPOLIS   PTCLDY    18  12  77 N8        30.20R WCI   8
LAFAYETTE      CLEAR     16  12  84 N7        30.24R WCI   6
MADISON        PTCLDY    16  11  80 CALM      30.25R
MILWAUKEE      PTCLDY    19  11  70 W5        30.27R WCI  12
$$




USA.gov is the U.S. government's official web portal to all federal, state and local government web resources and services.